{"data":{"norad_id":57350,"intl_designator":"2023-099Y","name":"STARLINK-6362","alt_names":[],"object_type":"PAYLOAD","status":"ACTIVE","operator":null,"country":"US","launch_date":"2023-07-16","launch_site_code":"AFETR","launch_vehicle":null,"mission":null,"orbit_class":"UNKNOWN","rcs_meters":null,"size_class":null,"mass_kg":null,"dimensions":null,"purposes":["comms"],"wikipedia_slug":null,"has_3d_model":false,"image_url":null,"decayed_at":null,"tle_current":{"epoch":"2026-05-25T02:27:06.610176Z","epoch_age_seconds":66560,"freshness":"FRESH","line1":"1 57350U 23099Y   26145.10215984  .00000214  00000+0  17311-4 0  9994","line2":"2 57350  43.0013 170.3170 0001260 285.8477  74.2235 15.27577908157874","mean_motion":15.27577908,"eccentricity":0.000126,"inclination_deg":43.0013,"raan_deg":170.317,"arg_perigee_deg":285.8477,"mean_anomaly_deg":74.2235,"bstar":1.7311e-5,"rev_number":15787,"period_min":94.266877810857,"perigee_km":482.19085001,"apogee_km":483.91987048479,"semimajor_km":6861.1923602474,"source":"CELESTRAK","updated_at":"2026-05-25T13:38:18.290307Z"}}}